Back to catalog

METEOR 2-8 DEB

AlivePO
NORAD 36320·DEBRIS·🇷🇺 Russia

Launched Mar 25, 1982 from Plesetsk Cosmodrome

Loading…

Next Passes (next 24 hours)

TLE

FreshSource: Space-Track

Epoch: Sep 13, 2026, 03:45 UTC

1 36320U 82025E   26256.15637054  .00004602  00000-0  13033-2 0  9997
2 36320  82.4646  53.4027 0003389 342.4374  17.6702 14.45417831680923

Track METEOR 2-8 DEB in real time with AllMySat

Download on the App Store